| time (UTC) | temp F | wind direction | speed MPH | gust MPH | rain 1hr in | rain 24hr in | rain mn in | humidity % | barometer mb |
| 20260904015554 | 65 | 181 | 2.0 | 8.0 | 0.00 | 0.00 | 0.00 | 90 | 1012.5 |
| 20260904015055 | 65 | 229 | 2.0 | 8.0 | 0.00 | 0.00 | 0.00 | 90 | 1012.6 |
| 20260904014631 | 66 | 257 | 1.0 | 8.0 | 0.00 | 0.00 | 0.00 | 90 | 1012.6 |
| 20260904014055 | 66 | 241 | 2.0 | 7.0 | 0.00 | 0.00 | 0.00 | 90 | 1012.6 |
| 20260904013555 | 66 | 240 | 1.0 | 5.0 | 0.00 | 0.00 | 0.00 | 89 | 1012.7 |
| 20260904013104 | 66 | 0 | 1.0 | 8.0 | 0.00 | 0.00 | 0.00 | 89 | 1012.7 |
| 20260904012555 | 66 | 222 | 1.0 | 9.0 | 0.00 | 0.00 | 0.00 | 89 | 1012.7 |
| 20260904012056 | 66 | 265 | 2.0 | 9.0 | 0.00 | 0.00 | 0.00 | 89 | 1012.6 |
| 20260904011605 | 66 | 211 | 1.0 | 8.0 | 0.00 | 0.00 | 0.00 | 88 | 1012.7 |
| 20260904011055 | 66 | 248 | 2.0 | 8.0 | 0.00 | 0.00 | 0.00 | 88 | 1012.7 |
| 20260904010555 | 67 | 244 | 1.0 | 9.0 | 0.00 | 0.00 | 0.00 | 88 | 1012.7 |
| 20260904010104 | 67 | 246 | 1.0 | 9.0 | 0.00 | 0.00 | 0.00 | 88 | 1012.8 |
| 20260904005555 | 67 | 244 | 3.0 | 8.0 | 0.00 | 0.00 | 0.00 | 87 | 1012.8 |
| 20260904005055 | 67 | 246 | 3.0 | 8.0 | 0.00 | 0.00 | 0.00 | 87 | 1012.8 |
| 20260904004608 | 67 | 215 | 2.0 | 8.0 | 0.00 | 0.00 | 0.00 | 87 | 1012.8 |
| 20260904004055 | 67 | 237 | 3.0 | 10.0 | 0.00 | 0.00 | 0.00 | 86 | 1012.8 |
| 20260904003558 | 67 | 247 | 2.0 | 10.0 | 0.00 | 0.00 | 0.00 | 86 | 1012.8 |
| 20260904003105 | 67 | 253 | 2.0 | 7.0 | 0.00 | 0.00 | 0.00 | 86 | 1012.8 |
| 20260904002555 | 67 | 279 | 1.0 | 10.0 | 0.00 | 0.00 | 0.00 | 85 | 1012.9 |
| 20260904002056 | 67 | 342 | 3.0 | 10.0 | 0.00 | 0.00 | 0.00 | 84 | 1012.8 |
| 20260904001601 | 67 | 219 | 3.0 | 7.0 | 0.00 | 0.00 | 0.00 | 84 | 1012.7 |
| 20260904001055 | 67 | 210 | 2.0 | 8.0 | 0.00 | 0.00 | 0.00 | 84 | 1012.8 |
| 20260904000555 | 67 | 229 | 3.0 | 8.0 | 0.00 | 0.00 | 0.00 | 84 | 1012.8 |
| 20260904000123 | 67 | 258 | 2.0 | 8.0 | 0.00 | 0.00 | 0.00 | 84 | 1012.9 |
| 20260903235557 | 67 | 205 | 1.0 | 8.0 | 0.00 | 0.00 | 0.00 | 85 | 1012.9 |
| 20260903235052 | 67 | 229 | 1.0 | 8.0 | 0.00 | 0.00 | 0.00 | 85 | 1013.0 |
| 20260903234604 | 67 | 260 | 0.0 | 6.0 | 0.00 | 0.00 | 0.00 | 85 | 1013.0 |
| 20260903234052 | 67 | 0 | 1.0 | 9.0 | 0.00 | 0.00 | 0.00 | 85 | 1013.1 |
| 20260903233556 | 67 | 283 | 3.0 | 9.0 | 0.00 | 0.00 | 0.00 | 84 | 1013.1 |
| 20260903233108 | 67 | 286 | 1.0 | 8.0 | 0.00 | 0.00 | 0.00 | 84 | 1013.2 |
| 20260903232555 | 68 | 302 | 1.0 | 7.0 | 0.00 | 0.00 | 0.00 | 84 | 1013.2 |
| 20260903232055 | 68 | 304 | 1.0 | 7.0 | 0.00 | 0.00 | 0.00 | 83 | 1013.2 |
| 20260903231603 | 68 | 320 | 1.0 | 7.0 | 0.00 | 0.00 | 0.00 | 83 | 1013.3 |
| 20260903231059 | 68 | 274 | 1.0 | 7.0 | 0.00 | 0.00 | 0.00 | 82 | 1013.3 |
| 20260903230552 | 68 | 242 | 1.0 | 8.0 | 0.00 | 0.00 | 0.00 | 82 | 1013.4 |
| 20260903230114 | 68 | 214 | 2.0 | 8.0 | 0.00 | 0.00 | 0.00 | 82 | 1013.4 |
| 20260903225555 | 68 | 210 | 3.0 | 9.0 | 0.00 | 0.00 | 0.00 | 82 | 1013.4 |
| 20260903225052 | 68 | 210 | 3.0 | 9.0 | 0.00 | 0.00 | 0.00 | 81 | 1013.5 |
| 20260903224629 | 68 | 182 | 4.0 | 9.0 | 0.00 | 0.00 | 0.00 | 81 | 1013.5 |
| 20260903224055 | 68 | 211 | 3.0 | 9.0 | 0.00 | 0.00 | 0.00 | 81 | 1013.5 |
| 20260903223555 | 68 | 238 | 2.0 | 9.0 | 0.00 | 0.00 | 0.00 | 81 | 1013.7 |
| 20260903223113 | 68 | 216 | 3.0 | 10.0 | 0.00 | 0.00 | 0.00 | 81 | 1013.7 |
| 20260903222556 | 69 | 222 | 3.0 | 11.0 | 0.00 | 0.00 | 0.00 | 81 | 1013.7 |
| 20260903222055 | 69 | 202 | 2.0 | 11.0 | 0.00 | 0.00 | 0.00 | 81 | 1013.7 |
| 20260903221604 | 69 | 279 | 5.0 | 11.0 | 0.00 | 0.00 | 0.00 | 80 | 1013.8 |
| 20260903221051 | 69 | 281 | 4.0 | 12.0 | 0.00 | 0.00 | 0.00 | 80 | 1013.8 |
| 20260903220555 | 69 | 219 | 4.0 | 12.0 | 0.00 | 0.00 | 0.00 | 80 | 1013.8 |
| 20260903220108 | 69 | 202 | 4.0 | 12.0 | 0.00 | 0.00 | 0.00 | 78 | 1013.9 |
| 20260903215552 | 69 | 267 | 4.0 | 12.0 | 0.00 | 0.00 | 0.00 | 78 | 1013.9 |
| 20260903215055 | 69 | 227 | 3.0 | 10.0 | 0.00 | 0.00 | 0.00 | 78 | 1013.9 |
| 20260903214613 | 69 | 219 | 3.0 | 9.0 | 0.00 | 0.00 | 0.00 | 78 | 1013.9 |
| 20260903214056 | 69 | 215 | 3.0 | 13.0 | 0.00 | 0.00 | 0.00 | 78 | 1014.0 |
| 20260903213555 | 69 | 269 | 4.0 | 13.0 | 0.00 | 0.00 | 0.00 | 78 | 1014.0 |
| 20260903213114 | 69 | 238 | 2.0 | 12.0 | 0.00 | 0.00 | 0.00 | 78 | 1014.1 |
| 20260903212556 | 69 | 231 | 4.0 | 12.0 | 0.00 | 0.00 | 0.00 | 79 | 1014.1 |
| 20260903212055 | 69 | 260 | 2.0 | 9.0 | 0.00 | 0.00 | 0.00 | 79 | 1014.1 |
| 20260903211610 | 69 | 236 | 2.0 | 9.0 | 0.00 | 0.00 | 0.00 | 79 | 1014.2 |
| 20260903211055 | 69 | 205 | 2.0 | 7.0 | 0.00 | 0.00 | 0.00 | 79 | 1014.3 |
| 20260903210555 | 69 | 0 | 2.0 | 9.0 | 0.00 | 0.00 | 0.00 | 80 | 1014.3 |
| 20260903210127 | 69 | 247 | 3.0 | 9.0 | 0.00 | 0.00 | 0.00 | 80 | 1014.2 |
| 20260903205556 | 69 | 194 | 4.0 | 9.0 | 0.00 | 0.00 | 0.00 | 79 | 1014.3 |
| 20260903205055 | 69 | 239 | 4.0 | 9.0 | 0.00 | 0.00 | 0.00 | 79 | 1014.3 |
| 20260903204606 | 69 | 221 | 3.0 | 8.0 | 0.00 | 0.00 | 0.00 | 79 | 1014.3 |
| 20260903204058 | 69 | 212 | 2.0 | 9.0 | 0.00 | 0.00 | 0.00 | 79 | 1014.3 |
| 20260903203555 | 70 | 190 | 3.0 | 9.0 | 0.00 | 0.00 | 0.00 | 79 | 1014.3 |
| 20260903203113 | 69 | 0 | 3.0 | 9.0 | 0.00 | 0.00 | 0.00 | 80 | 1014.3 |
| 20260903202559 | 69 | 277 | 2.0 | 8.0 | 0.00 | 0.00 | 0.00 | 80 | 1014.5 |
| 20260903202056 | 69 | 238 | 1.0 | 9.0 | 0.00 | 0.00 | 0.00 | 81 | 1014.5 |
| 20260903201606 | 68 | 0 | 2.0 | 9.0 | 0.00 | 0.00 | 0.00 | 81 | 1014.4 |
| 20260903201054 | 68 | 243 | 1.0 | 7.0 | 0.00 | 0.00 | 0.00 | 81 | 1014.5 |
| 20260903200554 | 68 | 229 | 2.0 | 7.0 | 0.00 | 0.00 | 0.00 | 80 | 1014.5 |
| 20260903200104 | 68 | 227 | 2.0 | 6.0 | 0.00 | 0.00 | 0.00 | 80 | 1014.5 |
| 20260903195555 | 68 | 252 | 2.0 | 7.0 | 0.00 | 0.00 | 0.00 | 79 | 1014.6 |
| 20260903195055 | 68 | 239 | 1.0 | 7.0 | 0.00 | 0.00 | 0.00 | 79 | 1014.6 |
| 20260903194606 | 68 | 218 | 2.0 | 7.0 | 0.00 | 0.00 | 0.00 | 79 | 1014.7 |
| 20260903194055 | 68 | 223 | 3.0 | 7.0 | 0.00 | 0.00 | 0.00 | 78 | 1014.7 |
| 20260903193555 | 68 | 188 | 2.0 | 8.0 | 0.00 | 0.00 | 0.00 | 78 | 1014.8 |
| 20260903193101 | 68 | 165 | 3.0 | 9.0 | 0.00 | 0.00 | 0.00 | 78 | 1014.9 |
| 20260903192555 | 68 | 202 | 4.0 | 9.0 | 0.00 | 0.00 | 0.00 | 78 | 1014.9 |
| 20260903192056 | 68 | 173 | 1.0 | 9.0 | 0.00 | 0.00 | 0.00 | 78 | 1015.0 |
| 20260903191602 | 68 | 188 | 4.0 | 10.0 | 0.00 | 0.00 | 0.00 | 78 | 1015.0 |
| 20260903191055 | 68 | 169 | 2.0 | 10.0 | 0.00 | 0.00 | 0.00 | 78 | 1015.0 |
| 20260903190556 | 68 | 211 | 1.0 | 8.0 | 0.00 | 0.00 | 0.00 | 79 | 1015.1 |
| 20260903190106 | 68 | 229 | 2.0 | 15.0 | 0.00 | 0.00 | 0.00 | 78 | 1015.1 |
| 20260903185555 | 68 | 228 | 3.0 | 15.0 | 0.00 | 0.01 | 0.00 | 78 | 1015.1 |
| 20260903185055 | 69 | 230 | 3.0 | 8.0 | 0.00 | 0.01 | 0.00 | 76 | 1015.1 |
| 20260903184605 | 69 | 214 | 2.0 | 8.0 | 0.00 | 0.01 | 0.00 | 76 | 1015.2 |
| 20260903184056 | 69 | 218 | 3.0 | 9.0 | 0.00 | 0.01 | 0.00 | 75 | 1015.2 |
| 20260903183556 | 69 | 226 | 3.0 | 10.0 | 0.00 | 0.01 | 0.00 | 75 | 1015.1 |
| 20260903183103 | 69 | 170 | 3.0 | 10.0 | 0.00 | 0.01 | 0.00 | 75 | 1015.1 |
| 20260903182557 | 69 | 162 | 3.0 | 10.0 | 0.00 | 0.01 | 0.00 | 75 | 1015.2 |
| 20260903182056 | 69 | 153 | 4.0 | 10.0 | 0.00 | 0.01 | 0.00 | 76 | 1015.1 |
| 20260903181609 | 69 | 163 | 2.0 | 14.0 | 0.00 | 0.01 | 0.00 | 77 | 1015.1 |
| 20260903181055 | 68 | 130 | 4.0 | 14.0 | 0.00 | 0.01 | 0.00 | 77 | 1015.1 |
| 20260903180556 | 68 | 156 | 6.0 | 15.0 | 0.00 | 0.01 | 0.00 | 77 | 1015.1 |
| 20260903180109 | 68 | 159 | 7.0 | 15.0 | 0.00 | 0.01 | 0.00 | 77 | 1015.0 |
| 20260903175554 | 68 | 211 | 4.0 | 15.0 | 0.00 | 0.01 | 0.00 | 76 | 1015.1 |
| 20260903175055 | 68 | 172 | 4.0 | 15.0 | 0.00 | 0.01 | 0.00 | 77 | 1015.0 |
| 20260903174603 | 68 | 155 | 4.0 | 11.0 | 0.00 | 0.01 | 0.00 | 77 | 1015.0 |
| 20260903174055 | 68 | 144 | 7.0 | 12.0 | 0.00 | 0.01 | 0.00 | 77 | 1015.0 |
| 20260903173557 | 68 | 155 | 4.0 | 13.0 | 0.00 | 0.01 | 0.00 | 78 | 1015.0 |
| 20260903173102 | 67 | 161 | 8.0 | 13.0 | 0.00 | 0.01 | 0.00 | 77 | 1015.0 |
| 20260903172555 | 67 | 168 | 4.0 | 10.0 | 0.00 | 0.01 | 0.00 | 78 | 1015.0 |
| 20260903172055 | 67 | 185 | 4.0 | 10.0 | 0.00 | 0.01 | 0.00 | 79 | 1015.1 |
| 20260903171612 | 66 | 181 | 6.0 | 12.0 | 0.00 | 0.01 | 0.00 | 79 | 1015.2 |
| 20260903171055 | 66 | 212 | 4.0 | 13.0 | 0.00 | 0.01 | 0.00 | 80 | 1015.2 |
| 20260903170556 | 66 | 217 | 6.0 | 13.0 | 0.00 | 0.01 | 0.00 | 80 | 1015.2 |
| 20260903170107 | 65 | 188 | 5.0 | 10.0 | 0.00 | 0.01 | 0.00 | 81 | 1015.3 |
| 20260903165556 | 65 | 230 | 4.0 | 11.0 | 0.00 | 0.01 | 0.00 | 82 | 1015.4 |
| 20260903165057 | 65 | 153 | 5.0 | 11.0 | 0.00 | 0.01 | 0.00 | 82 | 1015.3 |
| 20260903164625 | 64 | 130 | 5.0 | 11.0 | 0.00 | 0.01 | 0.00 | 82 | 1015.4 |
| 20260903164056 | 64 | 165 | 4.0 | 9.0 | 0.00 | 0.01 | 0.00 | 82 | 1015.5 |
| 20260903163556 | 64 | 201 | 3.0 | 10.0 | 0.00 | 0.01 | 0.00 | 83 | 1015.5 |
| 20260903163104 | 64 | 168 | 4.0 | 10.0 | 0.00 | 0.01 | 0.00 | 83 | 1015.6 |
| 20260903162555 | 64 | 194 | 3.0 | 11.0 | 0.00 | 0.01 | 0.00 | 84 | 1015.6 |
| 20260903162055 | 63 | 142 | 5.0 | 11.0 | 0.00 | 0.01 | 0.00 | 84 | 1015.6 |
| 20260903161601 | 63 | 180 | 4.0 | 10.0 | 0.00 | 0.01 | 0.00 | 85 | 1015.6 |
| 20260903161056 | 63 | 151 | 4.0 | 11.0 | 0.00 | 0.01 | 0.00 | 85 | 1015.6 |
| 20260903160555 | 63 | 162 | 5.0 | 11.0 | 0.00 | 0.01 | 0.00 | 85 | 1015.6 |
| 20260903160129 | 63 | 151 | 3.0 | 8.0 | 0.00 | 0.01 | 0.00 | 85 | 1015.6 |
| 20260903155557 | 63 | 178 | 3.0 | 10.0 | 0.00 | 0.01 | 0.00 | 86 | 1015.6 |
| 20260903155056 | 63 | 156 | 4.0 | 11.0 | 0.00 | 0.01 | 0.00 | 86 | 1015.7 |
| 20260903154611 | 63 | 163 | 5.0 | 11.0 | 0.00 | 0.01 | 0.00 | 86 | 1015.7 |
| 20260903154057 | 63 | 180 | 5.0 | 12.0 | 0.00 | 0.01 | 0.00 | 86 | 1015.6 |
| 20260903153555 | 63 | 188 | 5.0 | 13.0 | 0.00 | 0.01 | 0.00 | 86 | 1015.6 |
| 20260903153108 | 63 | 140 | 6.0 | 13.0 | 0.00 | 0.01 | 0.00 | 86 | 1015.7 |
| 20260903152556 | 63 | 165 | 4.0 | 11.0 | 0.00 | 0.01 | 0.00 | 86 | 1015.7 |
| 20260903152057 | 63 | 146 | 5.0 | 10.0 | 0.00 | 0.01 | 0.00 | 86 | 1015.5 |
| 20260903151608 | 63 | 160 | 5.0 | 9.0 | 0.00 | 0.01 | 0.00 | 86 | 1015.5 |
| 20260903151055 | 63 | 186 | 5.0 | 10.0 | 0.00 | 0.01 | 0.00 | 86 | 1015.6 |
| 20260903150556 | 62 | 149 | 4.0 | 11.0 | 0.00 | 0.01 | 0.00 | 87 | 1015.6 |
| 20260903150111 | 62 | 158 | 6.0 | 11.0 | 0.00 | 0.01 | 0.00 | 87 | 1015.6 |
| 20260903145556 | 62 | 163 | 4.0 | 9.0 | 0.00 | 0.01 | 0.00 | 88 | 1015.5 |
| 20260903145055 | 62 | 135 | 4.0 | 8.0 | 0.00 | 0.01 | 0.00 | 88 | 1015.5 |
| 20260903144607 | 62 | 135 | 4.0 | 8.0 | 0.00 | 0.01 | 0.00 | 88 | 1015.5 |
| 20260903144059 | 62 | 114 | 2.0 | 8.0 | 0.00 | 0.01 | 0.00 | 89 | 1015.5 |
| 20260903143556 | 61 | 144 | 2.0 | 8.0 | 0.00 | 0.01 | 0.00 | 89 | 1015.4 |
| 20260903143112 | 61 | 146 | 3.0 | 8.0 | 0.00 | 0.01 | 0.00 | 89 | 1015.5 |
| 20260903142556 | 61 | 144 | 3.0 | 9.0 | 0.00 | 0.01 | 0.00 | 90 | 1015.4 |
| 20260903142055 | 61 | 132 | 3.0 | 9.0 | 0.00 | 0.01 | 0.00 | 91 | 1015.4 |
| 20260903141614 | 61 | 136 | 3.0 | 8.0 | 0.00 | 0.01 | 0.00 | 91 | 1015.4 |
| 20260903141055 | 61 | 158 | 3.0 | 6.0 | 0.00 | 0.01 | 0.00 | 92 | 1015.3 |
| 20260903140555 | 61 | 153 | 2.0 | 6.0 | 0.00 | 0.01 | 0.00 | 92 | 1015.3 |
| 20260903140109 | 61 | 171 | 2.0 | 6.0 | 0.00 | 0.01 | 0.00 | 92 | 1015.3 |
| 20260903135555 | 61 | 167 | 2.0 | 5.0 | 0.00 | 0.01 | 0.00 | 92 | 1015.3 |
| 20260903135056 | 61 | 167 | 2.0 | 5.0 | 0.00 | 0.01 | 0.00 | 92 | 1015.4 |
| 20260903134601 | 61 | 177 | 2.0 | 5.0 | 0.00 | 0.01 | 0.00 | 92 | 1015.4 |
| 20260903134055 | 61 | 163 | 1.0 | 5.0 | 0.00 | 0.01 | 0.00 | 92 | 1015.4 |
| 20260903133555 | 61 | 168 | 2.0 | 4.0 | 0.00 | 0.01 | 0.00 | 92 | 1015.3 |
| 20260903133111 | 61 | 153 | 1.0 | 4.0 | 0.00 | 0.01 | 0.00 | 92 | 1015.3 |
| 20260903132556 | 61 | 168 | 2.0 | 4.0 | 0.00 | 0.01 | 0.00 | 92 | 1015.2 |
| 20260903132055 | 61 | 167 | 1.0 | 4.0 | 0.00 | 0.01 | 0.00 | 91 | 1015.3 |
| 20260903131605 | 61 | 167 | 1.0 | 3.0 | 0.00 | 0.01 | 0.00 | 91 | 1015.2 |
| 20260903131055 | 61 | 167 | 1.0 | 3.0 | 0.00 | 0.01 | 0.00 | 91 | 1015.2 |
| 20260903130556 | 61 | 173 | 1.0 | 3.0 | 0.00 | 0.01 | 0.00 | 91 | 1015.3 |
| 20260903130105 | 61 | 171 | 0.0 | 5.0 | 0.00 | 0.01 | 0.00 | 91 | 1015.3 |
| 20260903125556 | 61 | 0 | 1.0 | 5.0 | 0.00 | 0.01 | 0.00 | 91 | 1015.3 |
| 20260903125100 | 61 | 184 | 1.0 | 5.0 | 0.00 | 0.01 | 0.00 | 91 | 1015.3 |
| 20260903124607 | 62 | 168 | 1.0 | 4.0 | 0.00 | 0.01 | 0.00 | 91 | 1015.3 |
| 20260903124055 | 62 | 199 | 2.0 | 4.0 | 0.00 | 0.01 | 0.00 | 91 | 1015.3 |
| 20260903123555 | 62 | 170 | 2.0 | 4.0 | 0.00 | 0.01 | 0.00 | 91 | 1015.3 |
| 20260903123107 | 62 | 0 | 0.0 | 4.0 | 0.00 | 0.01 | 0.00 | 91 | 1015.3 |
| 20260903122556 | 62 | 0 | 0.0 | 4.0 | 0.00 | 0.01 | 0.00 | 91 | 1015.4 |
| 20260903122056 | 62 | 221 | 1.0 | 5.0 | 0.00 | 0.01 | 0.00 | 91 | 1015.4 |
| 20260903121608 | 62 | 193 | 1.0 | 7.0 | 0.00 | 0.01 | 0.00 | 91 | 1015.4 |
| 20260903121056 | 62 | 213 | 1.0 | 7.0 | 0.00 | 0.01 | 0.00 | 91 | 1015.5 |
| 20260903120556 | 62 | 161 | 3.0 | 7.0 | 0.00 | 0.01 | 0.00 | 91 | 1015.6 |
| 20260903120107 | 62 | 171 | 3.0 | 7.0 | 0.00 | 0.01 | 0.00 | 91 | 1015.5 |
| 20260903115555 | 62 | 174 | 2.0 | 6.0 | 0.00 | 0.01 | 0.00 | 91 | 1015.5 |
| 20260903115053 | 62 | 219 | 0.0 | 6.0 | 0.00 | 0.01 | 0.00 | 91 | 1015.6 |
| 20260903114607 | 62 | 188 | 2.0 | 6.0 | 0.00 | 0.01 | 0.00 | 91 | 1015.7 |
| 20260903114055 | 62 | 227 | 1.0 | 5.0 | 0.00 | 0.01 | 0.00 | 91 | 1015.8 |
| 20260903113555 | 62 | 178 | 1.0 | 6.0 | 0.00 | 0.01 | 0.00 | 91 | 1015.7 |
| 20260903113107 | 62 | 222 | 2.0 | 6.0 | 0.00 | 0.01 | 0.00 | 91 | 1015.8 |
| 20260903112556 | 62 | 186 | 1.0 | 6.0 | 0.00 | 0.01 | 0.00 | 91 | 1015.8 |
| 20260903112056 | 62 | 217 | 1.0 | 6.0 | 0.00 | 0.01 | 0.00 | 91 | 1015.9 |
| 20260903111603 | 62 | 233 | 0.0 | 6.0 | 0.00 | 0.01 | 0.00 | 91 | 1016.0 |
| 20260903111059 | 62 | 178 | 1.0 | 4.0 | 0.00 | 0.01 | 0.00 | 91 | 1016.0 |
| 20260903110556 | 62 | 185 | 1.0 | 5.0 | 0.00 | 0.01 | 0.00 | 91 | 1015.9 |
| 20260903110104 | 62 | 177 | 1.0 | 6.0 | 0.00 | 0.01 | 0.00 | 91 | 1016.1 |
| 20260903105555 | 62 | 219 | 2.0 | 6.0 | 0.00 | 0.01 | 0.00 | 91 | 1016.1 |
| 20260903105056 | 62 | 155 | 2.0 | 5.0 | 0.00 | 0.01 | 0.00 | 91 | 1016.0 |
| 20260903104606 | 62 | 184 | 1.0 | 4.0 | 0.00 | 0.01 | 0.00 | 91 | 1016.0 |
| 20260903104055 | 62 | 0 | 0.0 | 5.0 | 0.00 | 0.01 | 0.00 | 91 | 1016.2 |
| 20260903103555 | 62 | 194 | 2.0 | 5.0 | 0.00 | 0.01 | 0.00 | 91 | 1016.2 |
| 20260903103106 | 62 | 167 | 1.0 | 5.0 | 0.00 | 0.01 | 0.00 | 91 | 1016.1 |
| 20260903102556 | 62 | 172 | 2.0 | 5.0 | 0.00 | 0.01 | 0.00 | 91 | 1016.2 |
| 20260903102055 | 62 | 173 | 1.0 | 4.0 | 0.00 | 0.01 | 0.00 | 91 | 1016.2 |
| 20260903101611 | 62 | 183 | 1.0 | 4.0 | 0.00 | 0.01 | 0.00 | 91 | 1016.2 |
| 20260903101054 | 62 | 0 | 1.0 | 4.0 | 0.00 | 0.01 | 0.00 | 91 | 1016.1 |
| 20260903100554 | 61 | 165 | 1.0 | 3.0 | 0.00 | 0.01 | 0.00 | 91 | 1016.3 |
| 20260903100109 | 61 | 0 | 0.0 | 3.0 | 0.00 | 0.01 | 0.00 | 91 | 1016.3 |
| 20260903095554 | 61 | 0 | 0.0 | 4.0 | 0.00 | 0.01 | 0.00 | 91 | 1016.4 |
| 20260903095054 | 61 | 219 | 1.0 | 4.0 | 0.00 | 0.01 | 0.00 | 91 | 1016.3 |
| 20260903094610 | 61 | 214 | 1.0 | 4.0 | 0.00 | 0.01 | 0.00 | 91 | 1016.4 |
| 20260903094056 | 61 | 0 | 0.0 | 2.0 | 0.00 | 0.01 | 0.00 | 91 | 1016.5 |
| 20260903093554 | 61 | 0 | 0.0 | 4.0 | 0.00 | 0.01 | 0.00 | 91 | 1016.4 |
| 20260903093112 | 61 | 0 | 1.0 | 4.0 | 0.00 | 0.01 | 0.00 | 91 | 1016.4 |
| 20260903092555 | 61 | 0 | 0.0 | 3.0 | 0.00 | 0.01 | 0.00 | 91 | 1016.6 |
| 20260903092056 | 61 | 226 | 0.0 | 3.0 | 0.00 | 0.01 | 0.00 | 92 | 1016.6 |
| 20260903091604 | 61 | 0 | 0.0 | 2.0 | 0.00 | 0.01 | 0.00 | 91 | 1016.6 |
| 20260903091055 | 61 | 0 | 0.0 | 2.0 | 0.00 | 0.01 | 0.00 | 91 | 1016.6 |
| 20260903090554 | 61 | 0 | 0.0 | 3.0 | 0.00 | 0.01 | 0.00 | 91 | 1016.7 |
| 20260903090107 | 61 | 0 | 0.0 | 3.0 | 0.00 | 0.01 | 0.00 | 91 | 1016.7 |
| 20260903085553 | 61 | 219 | 1.0 | 3.0 | 0.00 | 0.01 | 0.00 | 92 | 1016.7 |
| 20260903085053 | 61 | 175 | 0.0 | 3.0 | 0.00 | 0.01 | 0.00 | 92 | 1016.8 |
| 20260903084605 | 61 | 212 | 0.0 | 3.0 | 0.00 | 0.01 | 0.00 | 92 | 1016.7 |
| 20260903084054 | 61 | 0 | 0.0 | 3.0 | 0.00 | 0.01 | 0.00 | 92 | 1016.7 |
| 20260903083556 | 61 | 210 | 0.0 | 3.0 | 0.00 | 0.01 | 0.00 | 91 | 1016.8 |
| 20260903083104 | 61 | 0 | 0.0 | 4.0 | 0.00 | 0.01 | 0.00 | 91 | 1016.8 |
| 20260903082553 | 61 | 0 | 1.0 | 4.0 | 0.00 | 0.01 | 0.00 | 92 | 1016.8 |
| 20260903082053 | 61 | 229 | 1.0 | 4.0 | 0.00 | 0.01 | 0.00 | 92 | 1016.7 |
| 20260903081604 | 61 | 0 | 1.0 | 4.0 | 0.00 | 0.01 | 0.00 | 92 | 1016.8 |
| 20260903081057 | 61 | 268 | 0.0 | 4.0 | 0.00 | 0.01 | 0.00 | 92 | 1016.8 |
| 20260903080553 | 61 | 213 | 1.0 | 4.0 | 0.00 | 0.01 | 0.00 | 92 | 1016.8 |
| 20260903075558 | 61 | 0 | 0.0 | 3.0 | 0.00 | 0.01 | 0.00 | 92 | 1016.8 |
| 20260903075052 | 61 | 219 | 0.0 | 3.0 | 0.00 | 0.01 | 0.00 | 92 | 1016.8 |
| 20260903074604 | 61 | 0 | 0.0 | 3.0 | 0.00 | 0.01 | 0.00 | 92 | 1016.8 |
| 20260903074054 | 61 | 0 | 0.0 | 3.0 | 0.00 | 0.01 | 0.00 | 92 | 1016.7 |
| 20260903073555 | 61 | 210 | 0.0 | 3.0 | 0.00 | 0.01 | 0.00 | 93 | 1016.8 |
| 20260903073106 | 61 | 237 | 0.0 | 3.0 | 0.00 | 0.01 | 0.00 | 93 | 1016.9 |
| 20260903072554 | 61 | 0 | 0.0 | 3.0 | 0.00 | 0.01 | 0.00 | 93 | 1016.9 |
| 20260903072054 | 61 | 212 | 1.0 | 4.0 | 0.00 | 0.01 | 0.00 | 92 | 1016.9 |
| 20260903071612 | 61 | 0 | 0.0 | 4.0 | 0.00 | 0.01 | 0.00 | 92 | 1016.8 |
| 20260903071054 | 61 | 239 | 1.0 | 4.0 | 0.00 | 0.01 | 0.00 | 92 | 1016.8 |
| 20260903070555 | 61 | 245 | 1.0 | 4.0 | 0.00 | 0.01 | 0.00 | 92 | 1016.8 |
| 20260903070109 | 61 | 233 | 1.0 | 5.0 | 0.00 | 0.01 | 0.00 | 92 | 1016.8 |
| 20260903065555 | 61 | 250 | 0.0 | 5.0 | 0.00 | 0.01 | 0.01 | 92 | 1016.7 |
| 20260903065054 | 61 | 236 | 1.0 | 5.0 | 0.00 | 0.01 | 0.01 | 92 | 1016.7 |
| 20260903064603 | 61 | 252 | 0.0 | 4.0 | 0.00 | 0.01 | 0.01 | 92 | 1016.7 |
| 20260903064055 | 61 | 247 | 0.0 | 3.0 | 0.00 | 0.01 | 0.01 | 92 | 1016.7 |
| 20260903063554 | 61 | 0 | 0.0 | 3.0 | 0.00 | 0.01 | 0.01 | 92 | 1016.8 |
| 20260903063126 | 61 | 0 | 0.0 | 4.0 | 0.00 | 0.01 | 0.01 | 92 | 1017.1 |
| 20260903062553 | 61 | 0 | 0.0 | 5.0 | 0.00 | 0.01 | 0.01 | 91 | 1017.0 |
| 20260903062054 | 61 | 0 | 1.0 | 5.0 | 0.00 | 0.01 | 0.01 | 91 | 1017.1 |
| 20260903061605 | 61 | 242 | 1.0 | 5.0 | 0.00 | 0.01 | 0.01 | 91 | 1017.1 |
| 20260903061054 | 61 | 0 | 0.0 | 4.0 | 0.00 | 0.01 | 0.01 | 91 | 1017.1 |
| 20260903060553 | 61 | 285 | 0.0 | 4.0 | 0.00 | 0.01 | 0.01 | 91 | 1017.2 |
| 20260903060118 | 61 | 227 | 0.0 | 4.0 | 0.00 | 0.01 | 0.01 | 91 | 1017.3 |
| 20260903055554 | 61 | 0 | 0.0 | 2.0 | 0.00 | 0.01 | 0.01 | 91 | 1017.2 |
| 20260903055054 | 61 | 0 | 0.0 | 2.0 | 0.00 | 0.01 | 0.01 | 91 | 1017.2 |
| 20260903054606 | 61 | 0 | 0.0 | 1.0 | 0.00 | 0.01 | 0.01 | 91 | 1017.3 |
| 20260903054054 | 61 | 0 | 0.0 | 2.0 | 0.00 | 0.01 | 0.01 | 91 | 1017.3 |
| 20260903053557 | 61 | 0 | 0.0 | 3.0 | 0.00 | 0.01 | 0.01 | 91 | 1017.3 |
| 20260903053105 | 61 | 0 | 0.0 | 3.0 | 0.00 | 0.01 | 0.01 | 91 | 1017.4 |
| 20260903052553 | 61 | 314 | 0.0 | 3.0 | 0.00 | 0.01 | 0.01 | 91 | 1017.4 |
| 20260903052057 | 61 | 306 | 0.0 | 5.0 | 0.00 | 0.01 | 0.01 | 91 | 1017.5 |
| 20260903051610 | 61 | 0 | 1.0 | 5.0 | 0.00 | 0.01 | 0.01 | 91 | 1017.6 |
| 20260903051054 | 61 | 0 | 0.0 | 5.0 | 0.00 | 0.01 | 0.01 | 91 | 1017.6 |
| 20260903050552 | 61 | 0 | 1.0 | 5.0 | 0.00 | 0.01 | 0.01 | 91 | 1017.6 |
| 20260903050129 | 61 | 301 | 0.0 | 3.0 | 0.00 | 0.01 | 0.01 | 92 | 1017.6 |
| 20260903045556 | 61 | 0 | 0.0 | 3.0 | 0.00 | 0.01 | 0.01 | 92 | 1017.6 |
| 20260903045052 | 61 | 0 | 0.0 | 0.0 | 0.00 | 0.01 | 0.01 | 92 | 1017.6 |
| 20260903044606 | 61 | 0 | 0.0 | 0.0 | 0.00 | 0.01 | 0.01 | 92 | 1017.5 |
| 20260903044052 | 61 | 0 | 0.0 | 3.0 | 0.00 | 0.01 | 0.01 | 92 | 1017.5 |
| 20260903043553 | 61 | 0 | 0.0 | 3.0 | 0.00 | 0.01 | 0.01 | 92 | 1017.4 |
| 20260903043103 | 61 | 0 | 0.0 | 3.0 | 0.00 | 0.01 | 0.01 | 92 | 1017.4 |
| 20260903042553 | 61 | 239 | 0.0 | 3.0 | 0.00 | 0.01 | 0.01 | 92 | 1017.4 |
| 20260903042053 | 61 | 0 | 0.0 | 4.0 | 0.00 | 0.01 | 0.01 | 92 | 1017.4 |
| 20260903041606 | 62 | 0 | 0.0 | 5.0 | 0.00 | 0.01 | 0.01 | 92 | 1017.1 |
| 20260903041056 | 62 | 225 | 0.0 | 5.0 | 0.00 | 0.01 | 0.01 | 92 | 1017.2 |
| 20260903040553 | 62 | 230 | 0.0 | 3.0 | 0.00 | 0.01 | 0.01 | 91 | 1017.1 |
| 20260903040110 | 62 | 264 | 0.0 | 3.0 | 0.00 | 0.01 | 0.01 | 91 | 1017.1 |
| 20260903035552 | 62 | 0 | 0.0 | 4.0 | 0.00 | 0.01 | 0.01 | 91 | 1017.1 |
| 20260903035056 | 62 | 224 | 0.0 | 4.0 | 0.00 | 0.01 | 0.01 | 91 | 1017.0 |
| 20260903034602 | 62 | 0 | 1.0 | 5.0 | 0.00 | 0.01 | 0.01 | 91 | 1017.0 |
| 20260903034053 | 62 | 220 | 1.0 | 5.0 | 0.00 | 0.01 | 0.01 | 91 | 1016.9 |
| 20260903033553 | 62 | 0 | 1.0 | 4.0 | 0.00 | 0.01 | 0.01 | 91 | 1016.8 |
| 20260903033107 | 62 | 0 | 0.0 | 4.0 | 0.00 | 0.01 | 0.01 | 91 | 1016.8 |
| 20260903032553 | 62 | 229 | 0.0 | 0.0 | 0.00 | 0.01 | 0.01 | 91 | 1016.8 |
| 20260903032056 | 62 | 0 | 0.0 | 0.0 | 0.00 | 0.01 | 0.01 | 90 | 1016.7 |
| 20260903031604 | 62 | 0 | 0.0 | 2.0 | 0.00 | 0.01 | 0.01 | 90 | 1016.5 |
| 20260903031056 | 62 | 0 | 0.0 | 3.0 | 0.00 | 0.01 | 0.01 | 90 | 1016.6 |
| 20260903030553 | 62 | 0 | 0.0 | 3.0 | 0.00 | 0.01 | 0.01 | 90 | 1016.5 |
| 20260903030108 | 62 | 74 | 0.0 | 5.0 | 0.00 | 0.01 | 0.01 | 90 | 1016.5 |
| 20260903025552 | 62 | 55 | 1.0 | 5.0 | 0.00 | 0.01 | 0.01 | 90 | 1016.5 |
| 20260903025056 | 62 | 224 | 1.0 | 5.0 | 0.00 | 0.01 | 0.01 | 90 | 1016.5 |
| 20260903024604 | 63 | 228 | 1.0 | 5.0 | 0.00 | 0.01 | 0.01 | 89 | 1016.5 |
| 20260903024057 | 63 | 234 | 0.0 | 3.0 | 0.00 | 0.01 | 0.01 | 89 | 1016.4 |
| 20260903023600 | 63 | 0 | 0.0 | 4.0 | 0.00 | 0.01 | 0.01 | 89 | 1016.5 |
| 20260903023107 | 63 | 221 | 0.0 | 6.0 | 0.00 | 0.01 | 0.01 | 89 | 1016.6 |
| 20260903022553 | 63 | 327 | 2.0 | 9.0 | 0.00 | 0.01 | 0.01 | 88 | 1016.6 |
| 20260903022054 | 63 | 0 | 2.0 | 9.0 | 0.00 | 0.01 | 0.01 | 88 | 1016.7 |
| 20260903021607 | 64 | 298 | 1.0 | 6.0 | 0.00 | 0.01 | 0.01 | 87 | 1016.6 |
| 20260903021055 | 64 | 0 | 1.0 | 8.0 | 0.00 | 0.01 | 0.01 | 87 | 1016.6 |
| 20260903020555 | 64 | 310 | 2.0 | 9.0 | 0.00 | 0.01 | 0.01 | 87 | 1016.7 |
| 20260903020106 | 64 | 183 | 3.0 | 9.0 | 0.00 | 0.01 | 0.01 | 87 | 1016.7 |